User: anonymous   Login
Location: Toronto
(43.6672°N, 79.4170°W)
Time: 09:04:02
(UTC-04:00)
Language:

ISS - Orbit

View from above orbital plane
View from above orbital plane
View from above satellite
View from above satellite

Ground track
Ground track

The orbit data is extracted from the following two-line orbital elements,

1 25544U 98067A   14296.18642300  .00020648  00000-0  35904-3 0  2825
2 25544 051.6471 185.1000 0002311 290.3042 205.5554 15.50763521911189
Epoch (UTC): 23 October 2014 04:28:26
Eccentricity: 0.0002311
inclination: 51.6471°
perigee height: 413 km
apogee height: 416 km
right ascension of ascending node: 185.1000°
argument of perigee: 290.3042°
revolutions per day: 15.50763521
mean anomaly at epoch: 205.5554°
orbit number at epoch: 91118

The dashed part of the orbit path shows where the satellite is in the earth's shadow,  

DLR